Regional Weather Roundup
Issued by NWS

Home | Current Version | Previous Version | Graphics & Text | Print | Product List | Glossary On
Versions: 1 2 3 4 5 6 7 8 9 10 11 12 13 14 15 16 17 18 19 20 21 22 23 24 25 26 27
000
ASUS45 KBOU 150907
RWRCO

WEATHER ROUNDUP FOR COLORADO
NATIONAL WEATHER SERVICE DENVER/BOULDER CO
200 AM MST SUN JAN 15 2017

NOTE: "FAIR" INDICATES FEW OR NO CLOUDS BELOW 12000 FEET WITH NO
SIGNIFICANT WEATHER AND/OR OBSTRUCTIONS TO VISIBILITY.

COZ001>005-013-030-031-151000-
...NORTHWEST COLORADO...

CITY           SKY/WX    TMP DP  RH WIND       PRES   REMARKS
CRAIG          CLOUDY    28  25  88 NE3       30.16F
HAYDEN         CLOUDY    27  21  80 NE5       30.14F WCI  21
MEEKER         CLOUDY    30  28  92 CALM      30.13F
MOUNT WERNER   NOT AVBL
STEAMBOAT SPGS CLOUDY    24  23  96 NW6       30.14F WCI  17
WALDEN           N/A    N/A N/A N/A CALM      30.18S VSB 1/4
$$

COZ006>008-011-151000-
...WEST CENTRAL VALLEYS...

CITY           SKY/WX    TMP DP  RH WIND       PRES   REMARKS
GRAND JUNCTION FAIR      34  34 100 CALM      30.07F
MONTROSE       FOG       32  32 100 SE3       30.10R VSB 1/2
EAGLE          CLOUDY    29  26  89 NE3       30.14F
RIFLE          MOCLDY    30  29  96 E3        30.10F
DELTA          CLOUDY    37  36  96 CALM      30.09R FOG
NUCLA          CLOUDY    36  34  93 E5        30.09S
$$

COZ017>023-064>068-151000-
...SOUTHWEST COLORADO...

CITY           SKY/WX    TMP DP  RH WIND       PRES   REMARKS
DURANGO        LGT RAIN  35  33  92 CALM      30.07R
CORTEZ         CLOUDY    40  38  93 CALM      30.01S
PAGOSA SPRINGS FLURRIES  35  34  95 E3        30.09R
TELLURIDE      CLOUDY    32  27  83 CALM      30.08F
WOLF CREEK PAS   N/A     23  23 100 SE3       30.19S
$$

COZ009-010-012-014-032>034-037-058>063-151000-
...CENTRAL COLORADO...

CITY           SKY/WX    TMP DP  RH WIND       PRES   REMARKS
ASPEN          CLOUDY    26  26 100 SE3       30.08F FOG
BUENA VISTA    CLOUDY    30  28  91 N3        30.12F
COPPER MTN     NOT AVBL
BERTHOUD PASS  NOT AVBL
COTTONWOOD PAS CLOUDY    30  27  86 W3        30.13F
GUNNISON       FOG       15  13  91 CALM      30.13F VSB 1/4
KREMMLING      FOG       23  21  93 CALM      30.17F VSB 1/2
LEADVILLE      CLOUDY    24  21  88 CALM      30.13F
MONARCH PASS   CLOUDY    25  23  93 CALM      30.25F
SALIDA         CLOUDY    33  31  95 CALM      30.19F
SUNLIGHT       FOG       25  23  93 CALM      30.15S VSB 3/4
WILKERSON PASS MOCLDY   N/A N/A N/A SW5       30.17F
$$

COZ069>075-151000-
...SAN LUIS VALLEY/SANGRE DE CRISTO MOUNTAINS...

CITY           SKY/WX    TMP DP  RH WIND       PRES   REMARKS
ALAMOSA        CLOUDY    24  22  91 S3        30.10R FOG
LA VETA PASS   NOT AVBL
SAGUACHE       CLOUDY    30  27  86 N6        30.10R WCI  24
$$

COZ035-036-038>040-151000-
...NORTHERN COLORADO FRONT RANGE...

CITY           SKY/WX    TMP DP  RH WIND       PRES   REMARKS
DENVER INTL AP MOCLDY    26  23  88 W5        30.14F FOG     WCI  20
DMNS CITY PARK   N/A     26  26  99 N2        30.14F
AURORA         PTCLDY    25  25  99 CALM      30.14F
FRONT RANGE AP FAIR      27  23  86 SW7       30.14F FOG     WCI  19
ERIE MUNI ARPT FAIR      22  21  95 CALM      30.16F FOG
BOULDER MUN AP FAIR      30  28  93 CALM      30.14F
CENTENNIAL     MOCLDY    26  23  88 CALM      30.13F FOG
BROOMFIELD     FAIR      30  27  86 NW9       30.14F FOG     WCI  22
FORT COLLINS   FAIR      27  25  93 CALM      30.18F
LONGMONT       FAIR      26  23  89 CALM      30.18F FOG
$$

COZ041-046-047-076>085-087-088-151000-
...PIKES PEAK/PALMER DIVIDE AND SOUTHERN FOOTHILLS...

CITY           SKY/WX    TMP DP  RH WIND       PRES   REMARKS
COLO. SPRINGS  MOCLDY    25  20  81 N8        30.10F WCI  16
A. F. ACADEMY  FAIR      25  22  86 N7        30.09F WCI  18
SCHRIEVER AFB  NOT AVBL
ELLICOTT       FAIR     N/A N/A N/A NE7       30.09F
FALCON         FAIR      29  22  76 CALM      30.11F
FORT CARSON    NOT AVBL
LIMON          CLOUDY    23  22  96 W6        30.13S WCI  16
MONUMENT HILL  FAIR      25  23  93 NW5       30.13S WCI  19
TRINIDAD       CLOUDY    34  27  75 NW3       30.12F HAZE
$$

COZ042>045-048>051-090-091-151000-
...NORTHEAST COLORADO...

CITY           SKY/WX    TMP DP  RH WIND       PRES   REMARKS
GREELEY ARPT   MOCLDY    24  23  96 CALM      30.19F
AKRON          FAIR      22  17  81 W9        30.14F WCI  12
BURLINGTON     CLOUDY    33  24  69 NE6       30.16F WCI  28
WRAY           NOT AVBL
STERLING       FAIR      23  21  93 CALM      30.18F
HOLYOKE        FAIR      21  18  86 CALM      30.20F
FORT MORGAN    FAIR      24  20  85 N3        30.17F
$$

COZ086-089-092>099-151000-
...SOUTHEAST COLORADO...

CITY           SKY/WX    TMP DP  RH WIND       PRES   REMARKS
PUEBLO         FAIR      26  21  81 CALM      30.14F
LA JUNTA       CLOUDY    32  25  75 CALM      30.17S
LAMAR          CLOUDY    32  26  78 E6        30.17F WCI  26
SPRINGFIELD      N/A     30  29  96 E3        30.15F
$$




USA.gov is the U.S. government's official web portal to all federal, state and local government web resources and services.